LZ1BAB-WX Weather Reports


Display with metric or nautical units.
time (UTC)temp
F
wind
direction
speed
MPH
gust
MPH
rain 1hr
in
rain 24hr
in
rain mn
in
humidity
%
barometer
mb
20260906044149 74 274 2.0 3.0 0.00 0.00 0.00 50 1019.3
20260906043950 74 240 2.0 3.0 0.00 0.00 0.00 50 1019.5
20260906043749 74 246 2.0 6.0 0.00 0.00 0.00 50 1019.2
20260906043549 74 84 1.0 8.0 0.00 0.00 0.00 49 1019.5
20260906043349 74 24 0.0 9.0 0.00 0.00 0.00 50 1019.2
20260906043150 74 314 0.0 9.0 0.00 0.00 0.00 50 1019.2
20260906042950 74 272 1.0 9.0 0.00 0.00 0.00 49 1019.0
20260906042749 72 231 4.0 9.0 0.00 0.00 0.00 50 1019.1
20260906042549 69 277 2.0 9.0 0.00 0.00 0.00 55 1019.2
20260906042349 67 0 1.0 5.0 0.00 0.00 0.00 60 1019.2
20260906042149 66 310 2.0 5.0 0.00 0.00 0.00 62 1019.1
20260906041949 65 222 2.0 4.0 0.00 0.00 0.00 63 1019.3
20260906041749 65 39 2.0 4.0 0.00 0.00 0.00 63 1019.0
20260906041550 65 347 2.0 4.0 0.00 0.00 0.00 63 1019.1
20260906041349 64 62 0.0 4.0 0.00 0.00 0.00 65 1019.0
20260906041150 64 61 1.0 4.0 0.00 0.00 0.00 64 1019.0
20260906040949 64 4 3.0 4.0 0.00 0.00 0.00 66 1019.0
20260906040749 63 23 3.0 4.0 0.00 0.00 0.00 67 1019.0
20260906040549 63 335 0.0 4.0 0.00 0.00 0.00 67 1019.3
20260906040349 61 238 2.0 4.0 0.00 0.00 0.00 69 1019.0
20260906040149 61 65 2.0 3.0 0.00 0.00 0.00 70 1019.2
20260906035948 61 237 2.0 3.0 0.00 0.00 0.00 70 1019.0
20260906035748 61 6 2.0 3.0 0.00 0.00 0.00 69 1019.1
20260906035549 61 358 2.0 4.0 0.00 0.00 0.00 69 1019.1
20260906035347 61 273 1.0 4.0 0.00 0.00 0.00 69 1018.9
20260906035148 61 255 2.0 4.0 0.00 0.00 0.00 68 1019.1
20260906034946 62 118 1.0 4.0 0.00 0.00 0.00 68 1019.1
20260906034746 62 10 2.0 4.0 0.00 0.00 0.00 67 1019.1
20260906034546 61 56 3.0 3.0 0.00 0.00 0.00 68 1018.8
20260906034345 61 12 2.0 3.0 0.00 0.00 0.00 69 1018.9
20260906034145 61 65 0.0 3.0 0.00 0.00 0.00 68 1019.0
20260906033944 62 166 0.0 3.0 0.00 0.00 0.00 68 1018.8
20260906033745 62 171 2.0 4.0 0.00 0.00 0.00 68 1019.0
20260906033545 62 146 1.0 4.0 0.00 0.00 0.00 67 1018.7
20260906033346 62 32 0.0 4.0 0.00 0.00 0.00 68 1018.8
20260906033145 62 235 0.0 4.0 0.00 0.00 0.00 68 1018.7
20260906032945 61 40 2.0 6.0 0.00 0.00 0.00 68 1018.8
20260906032746 61 216 0.0 6.0 0.00 0.00 0.00 69 1018.7
20260906032545 61 28 2.0 6.0 0.00 0.00 0.00 69 1018.7
20260906032345 61 195 0.0 6.0 0.00 0.00 0.00 69 1018.9
20260906032146 61 41 4.0 6.0 0.00 0.00 0.00 69 1018.6
20260906031944 60 40 1.0 3.0 0.00 0.00 0.00 70 1018.9
20260906031744 61 26 0.0 4.0 0.00 0.00 0.00 69 1018.8
20260906031544 61 7 2.0 4.0 0.00 0.00 0.00 70 1018.6
20260906031343 61 13 2.0 4.0 0.00 0.00 0.00 69 1018.6
20260906031143 61 69 0.0 4.0 0.00 0.00 0.00 69 1018.6
20260906030943 61 32 2.0 4.0 0.00 0.00 0.00 70 1018.6
20260906030743 60 223 2.0 4.0 0.00 0.00 0.00 70 1018.6
20260906030543 60 348 1.0 4.0 0.00 0.00 0.00 70 1018.3
20260906030343 60 300 1.0 4.0 0.00 0.00 0.00 70 1018.4
20260906030144 60 41 0.0 4.0 0.00 0.00 0.00 71 1018.5
20260906025943 60 326 1.0 4.0 0.00 0.00 0.00 71 1018.7
20260906025743 61 176 2.0 4.0 0.00 0.00 0.00 71 1018.5
20260906025543 61 158 2.0 4.0 0.00 0.00 0.00 69 1018.4
20260906025343 61 143 2.0 4.0 0.00 0.00 0.00 69 1018.5
20260906025143 61 33 2.0 4.0 0.00 0.00 0.00 70 1018.5
20260906024943 61 89 0.0 4.0 0.00 0.00 0.00 71 1018.5
20260906024743 61 65 1.0 3.0 0.00 0.00 0.00 71 1018.6
20260906024543 61 193 0.0 3.0 0.00 0.00 0.00 70 1018.4
20260906024343 61 55 0.0 2.0 0.00 0.00 0.00 70 1018.4
20260906024143 61 242 1.0 2.0 0.00 0.00 0.00 70 1018.1
20260906023943 61 112 2.0 2.0 0.00 0.00 0.00 70 1018.3
20260906023743 61 271 0.0 2.0 0.00 0.00 0.00 70 1018.3
20260906023543 61 243 0.0 2.0 0.00 0.00 0.00 70 1018.3
20260906023342 62 11 0.0 2.0 0.00 0.00 0.00 69 1018.2
20260906023142 61 32 0.0 3.0 0.00 0.00 0.00 69 1018.4
20260906022942 61 343 0.0 3.0 0.00 0.00 0.00 69 1018.3
20260906022743 62 89 2.0 3.0 0.00 0.00 0.00 69 1018.4
20260906022543 62 94 0.0 3.0 0.00 0.00 0.00 69 1018.2
20260906022342 61 325 0.0 3.0 0.00 0.00 0.00 69 1018.5
20260906022143 61 36 1.0 3.0 0.00 0.00 0.00 69 1018.2
20260906021942 61 283 1.0 4.0 0.00 0.00 0.00 69 1018.1
20260906021742 61 273 2.0 6.0 0.00 0.00 0.00 69 1018.2
20260906021542 61 40 2.0 6.0 0.00 0.00 0.00 69 1018.3
20260906021342 61 100 1.0 6.0 0.00 0.00 0.00 69 1018.2
20260906021142 61 261 3.0 6.0 0.00 0.00 0.00 68 1018.3
20260906020941 61 249 0.0 6.0 0.00 0.00 0.00 69 1018.4
20260906020741 61 18 0.0 5.0 0.00 0.00 0.00 69 1018.2
20260906020541 60 64 2.0 5.0 0.00 0.00 0.00 70 1018.3
20260906020340 60 236 2.0 5.0 0.00 0.00 0.00 71 1018.4
20260906020140 60 96 4.0 5.0 0.00 0.00 0.00 70 1018.2
20260906015940 60 85 1.0 4.0 0.00 0.00 0.00 70 1018.5
20260906015739 61 194 2.0 4.0 0.00 0.00 0.00 70 1018.3
20260906015539 60 294 1.0 4.0 0.00 0.00 0.00 70 1018.4
20260906015339 60 221 4.0 4.0 0.00 0.00 0.00 71 1018.6
20260906015139 60 14 2.0 3.0 0.00 0.00 0.00 71 1018.4
20260906014939 60 246 3.0 3.0 0.00 0.00 0.00 71 1018.7
20260906014739 60 191 2.0 3.0 0.00 0.00 0.00 71 1018.5
20260906014539 60 307 1.0 4.0 0.00 0.00 0.00 70 1018.6
20260906014339 60 13 1.0 4.0 0.00 0.00 0.00 71 1018.3
20260906014139 60 359 0.0 4.0 0.00 0.00 0.00 71 1018.2
20260906013938 60 160 0.0 5.0 0.00 0.00 0.00 71 1018.6
20260906013739 60 170 1.0 5.0 0.00 0.00 0.00 71 1018.4
20260906013539 60 22 0.0 5.0 0.00 0.00 0.00 71 1018.4
20260906013338 60 168 0.0 5.0 0.00 0.00 0.00 71 1018.4
20260906013139 60 60 0.0 5.0 0.00 0.00 0.00 72 1018.4
20260906012938 60 209 2.0 3.0 0.00 0.00 0.00 72 1018.6
20260906012738 60 30 2.0 3.0 0.00 0.00 0.00 71 1018.6
20260906012526 60 48 0.0 3.0 0.00 0.00 0.00 71 1018.4
20260906012326 60 28 1.0 2.0 0.00 0.00 0.00 72 1018.5
20260906012126 60 38 0.0 2.0 0.00 0.00 0.00 71 1018.6
20260906011925 60 32 1.0 3.0 0.00 0.00 0.00 72 1018.4
20260906011726 60 176 0.0 3.0 0.00 0.00 0.00 71 1018.6
20260906011515 60 183 0.0 3.0 0.00 0.00 0.00 71 1018.3
20260906011313 60 243 0.0 3.0 0.00 0.00 0.00 71 1018.6
20260906011113 60 184 0.0 3.0 0.00 0.00 0.00 71 1018.4
20260906010912 60 248 2.0 3.0 0.00 0.00 0.00 71 1018.7
20260906010712 60 25 0.0 3.0 0.00 0.00 0.00 71 1018.6
20260906010514 60 319 1.0 3.0 0.00 0.00 0.00 70 1018.3
20260906010312 60 214 2.0 3.0 0.00 0.00 0.00 71 1018.4
20260906010111 60 255 2.0 3.0 0.00 0.00 0.00 71 1018.4
20260906005912 60 184 1.0 3.0 0.00 0.00 0.00 71 1018.4
20260906005710 60 149 1.0 3.0 0.00 0.00 0.00 71 1018.7
20260906005512 60 143 1.0 3.0 0.00 0.00 0.00 72 1018.8
20260906005309 60 15 2.0 3.0 0.00 0.00 0.00 72 1018.3
20260906005109 60 174 2.0 3.0 0.00 0.00 0.00 72 1018.6
20260906004908 60 223 2.0 3.0 0.00 0.00 0.00 72 1018.6
20260906004708 60 215 2.0 3.0 0.00 0.00 0.00 72 1018.5
20260906004511 60 222 0.0 4.0 0.00 0.00 0.00 72 1018.4
20260906004308 60 85 1.0 4.0 0.00 0.00 0.00 72 1018.6
20260906004109 60 296 0.0 4.0 0.00 0.00 0.00 72 1018.8
20260906003908 59 50 0.0 4.0 0.00 0.00 0.00 73 1018.5
20260906003708 59 180 3.0 4.0 0.00 0.00 0.00 73 1018.3
20260906003510 60 192 0.0 2.0 0.00 0.00 0.00 72 1018.3
20260906003308 60 204 0.0 3.0 0.00 0.00 0.00 71 1018.3
20260906003108 60 194 0.0 3.0 0.00 0.00 0.00 71 1018.5
20260906002908 60 52 1.0 3.0 0.00 0.00 0.00 72 1018.6
20260906002707 60 11 1.0 3.0 0.00 0.00 0.00 73 1018.5
20260906002509 60 178 2.0 3.0 0.00 0.00 0.00 73 1018.4
20260906002308 60 203 0.0 2.0 0.00 0.00 0.00 71 1018.3
20260906002107 60 218 1.0 2.0 0.00 0.00 0.00 71 1018.5
20260906001907 60 224 0.0 2.0 0.00 0.00 0.00 71 1018.6
20260906001706 60 65 1.0 2.0 0.00 0.00 0.00 71 1018.6
20260906001508 60 9 1.0 2.0 0.00 0.00 0.00 71 1018.3
20260906001307 60 358 0.0 2.0 0.00 0.00 0.00 71 1018.2
20260906001105 60 194 1.0 2.0 0.00 0.00 0.00 71 1018.2
20260906000907 61 155 0.0 2.0 0.00 0.00 0.00 70 1018.4
20260906000706 61 165 0.0 2.0 0.00 0.00 0.00 70 1018.4
20260906000508 61 219 0.0 2.0 0.00 0.00 0.00 69 1018.6
20260906000306 61 184 0.0 3.0 0.00 0.00 0.00 68 1018.2
20260906000106 62 303 2.0 3.0 0.00 0.00 0.00 68 1018.6
20260905235906 61 41 0.0 3.0 0.00 0.00 0.00 68 1018.5
20260905235706 61 19 2.0 3.0 0.00 0.00 0.00 69 1018.3
20260905235509 61 299 0.0 3.0 0.00 0.00 0.00 69 1018.5
20260905235307 60 255 2.0 3.0 0.00 0.00 0.00 70 1018.6
20260905235106 60 263 0.0 3.0 0.00 0.00 0.00 72 1018.5
20260905234906 60 227 2.0 3.0 0.00 0.00 0.00 72 1018.6
20260905234707 60 181 0.0 2.0 0.00 0.00 0.00 73 1018.6
20260905234509 60 322 0.0 2.0 0.00 0.00 0.00 73 1018.5
20260905234306 60 300 1.0 2.0 0.00 0.00 0.00 73 1018.4
20260905234106 60 299 1.0 3.0 0.00 0.00 0.00 73 1018.4
20260905233907 60 174 2.0 3.0 0.00 0.00 0.00 73 1018.4
20260905233707 60 175 0.0 3.0 0.00 0.00 0.00 72 1018.4
20260905233508 60 37 0.0 3.0 0.00 0.00 0.00 72 1018.6
20260905233306 60 334 2.0 3.0 0.00 0.00 0.00 71 1018.4
20260905233107 60 322 0.0 2.0 0.00 0.00 0.00 73 1018.7
20260905232906 60 245 0.0 2.0 0.00 0.00 0.00 73 1018.8
20260905232706 60 153 0.0 2.0 0.00 0.00 0.00 72 1018.5
20260905232509 60 216 1.0 2.0 0.00 0.00 0.00 72 1018.7
20260905232306 60 26 0.0 3.0 0.00 0.00 0.00 72 1018.9
20260905232106 60 345 0.0 3.0 0.00 0.00 0.00 72 1018.6
20260905231906 60 342 0.0 3.0 0.00 0.00 0.00 72 1018.7
20260905231706 60 185 0.0 3.0 0.00 0.00 0.00 72 1018.8
20260905231508 60 241 1.0 3.0 0.00 0.00 0.00 72 1018.5
20260905231306 60 208 2.0 2.0 0.00 0.00 0.00 72 1018.6
20260905231106 60 60 0.0 3.0 0.00 0.00 0.00 71 1018.9
20260905230906 60 42 1.0 3.0 0.00 0.00 0.00 73 1018.8
20260905230700 60 205 0.0 3.0 0.00 0.00 0.00 73 1018.6
20260905230453 60 219 0.0 3.0 0.00 0.00 0.00 73 1018.5
20260905230252 60 254 0.0 3.0 0.00 0.00 0.00 73 1018.7
20260905230052 60 254 3.0 3.0 0.00 0.00 0.00 73 1018.8
20260905225852 60 269 1.0 2.0 0.00 0.00 0.00 72 1018.6
20260905225652 60 213 0.0 2.0 0.00 0.00 0.00 72 1018.8
20260905225452 60 230 0.0 2.0 0.00 0.00 0.00 72 1018.8
20260905225252 60 358 0.0 2.0 0.00 0.00 0.00 72 1018.7
20260905225052 60 29 0.0 2.0 0.00 0.00 0.00 72 1018.7
20260905224852 60 18 1.0 2.0 0.00 0.00 0.00 72 1018.9
20260905224652 60 197 1.0 2.0 0.00 0.00 0.00 72 1018.7
20260905224451 60 208 1.0 2.0 0.00 0.00 0.00 72 1018.8
20260905224251 60 178 0.0 2.0 0.00 0.00 0.00 72 1018.8
20260905224051 60 187 1.0 2.0 0.00 0.00 0.00 72 1018.6
20260905223850 61 183 2.0 2.0 0.00 0.00 0.00 72 1018.8
20260905223650 61 236 1.0 2.0 0.00 0.00 0.00 71 1018.8
20260905223450 61 3 1.0 2.0 0.00 0.00 0.00 71 1018.6
20260905223250 61 164 0.0 2.0 0.00 0.00 0.00 70 1018.8
20260905223050 61 173 2.0 2.0 0.00 0.00 0.00 70 1018.8
20260905222850 62 210 0.0 2.0 0.00 0.00 0.00 69 1018.9
20260905222650 62 157 0.0 3.0 0.00 0.00 0.00 69 1018.7
20260905222449 61 34 0.0 3.0 0.00 0.00 0.00 69 1018.8
20260905222249 62 201 0.0 3.0 0.00 0.00 0.00 69 1018.9
20260905222050 62 186 2.0 3.0 0.00 0.00 0.00 69 1018.8
20260905221851 62 188 2.0 3.0 0.00 0.00 0.00 69 1018.9
20260905221649 62 180 1.0 2.0 0.00 0.00 0.00 68 1018.7
20260905221450 62 222 0.0 2.0 0.00 0.00 0.00 68 1018.8
20260905221249 62 220 0.0 2.0 0.00 0.00 0.00 67 1018.9
20260905221049 62 315 0.0 1.0 0.00 0.00 0.00 68 1018.8
20260905220849 62 257 0.0 1.0 0.00 0.00 0.00 68 1018.8
20260905220649 62 315 0.0 1.0 0.00 0.00 0.00 69 1018.6
20260905220449 62 322 0.0 1.0 0.00 0.00 0.00 68 1018.7
20260905220249 62 37 0.0 2.0 0.00 0.00 0.00 69 1018.9
20260905220049 62 292 1.0 3.0 0.00 0.00 0.00 69 1019.0
20260905215848 62 164 0.0 4.0 0.00 0.00 0.00 69 1019.0
20260905215649 62 197 0.0 4.0 0.00 0.00 0.00 69 1018.8
20260905215447 62 17 0.0 4.0 0.00 0.00 0.00 69 1018.8
20260905215248 62 229 1.0 4.0 0.00 0.00 0.00 69 1018.8
20260905215047 62 220 2.0 4.0 0.00 0.00 0.00 69 1019.0
20260905214847 61 311 0.0 2.0 0.00 0.00 0.00 70 1018.8
20260905214646 61 325 0.0 2.0 0.00 0.00 0.00 70 1018.8
20260905214446 61 332 2.0 2.0 0.00 0.00 0.00 71 1019.0
20260905214246 61 294 0.0 2.0 0.00 0.00 0.00 71 1018.8
20260905214046 61 308 0.0 2.0 0.00 0.00 0.00 71 1018.9
20260905213846 61 184 0.0 2.0 0.00 0.00 0.00 72 1018.9
20260905213646 60 269 2.0 2.0 0.00 0.00 0.00 72 1018.9
20260905213447 60 272 0.0 2.0 0.00 0.00 0.00 73 1018.9
20260905213246 60 257 0.0 2.0 0.00 0.00 0.00 74 1019.2
20260905213047 60 221 0.0 2.0 0.00 0.00 0.00 74 1018.9
20260905212846 60 197 0.0 2.0 0.00 0.00 0.00 74 1019.0
20260905212646 60 221 1.0 2.0 0.00 0.00 0.00 74 1018.8
20260905212446 60 148 0.0 2.0 0.00 0.00 0.00 76 1018.9
20260905212245 60 202 1.0 2.0 0.00 0.00 0.00 75 1019.0
20260905212045 60 179 0.0 2.0 0.00 0.00 0.00 74 1019.0
20260905211846 60 169 0.0 2.0 0.00 0.00 0.00 74 1019.0
20260905211645 60 179 1.0 2.0 0.00 0.00 0.00 74 1018.8
20260905211446 60 161 0.0 2.0 0.00 0.00 0.00 74 1019.1
20260905211245 60 353 0.0 2.0 0.00 0.00 0.00 75 1018.9
20260905211045 60 185 0.0 2.0 0.00 0.00 0.00 75 1018.9
20260905210832 60 172 1.0 2.0 0.00 0.00 0.00 75 1019.0
20260905210633 60 304 1.0 2.0 0.00 0.00 0.00 74 1019.0
20260905210431 60 333 0.0 2.0 0.00 0.00 0.00 75 1019.1
20260905210231 61 252 1.0 2.0 0.00 0.00 0.00 75 1019.1
20260905210031 61 232 1.0 2.0 0.00 0.00 0.00 76 1018.8
20260905205831 61 191 0.0 2.0 0.00 0.00 0.00 76 1019.0
20260905205630 61 185 0.0 2.0 0.00 0.00 0.00 76 1018.9
20260905205431 61 219 0.0 2.0 0.00 0.00 0.00 75 1018.8
20260905205231 62 186 0.0 2.0 0.00 0.00 0.00 74 1019.0
20260905205031 62 179 1.0 2.0 0.00 0.00 0.00 74 1018.9
20260905204824 62 183 1.0 1.0 0.00 0.00 0.00 73 1018.8
20260905204617 63 315 0.0 2.0 0.00 0.00 0.00 73 1018.9
20260905204417 62 304 0.0 2.0 0.00 0.00 0.00 73 1018.9
20260905204217 62 224 0.0 2.0 0.00 0.00 0.00 73 1018.9
20260905204017 62 195 0.0 2.0 0.00 0.00 0.00 73 1018.7
20260905203819 63 174 0.0 2.0 0.00 0.00 0.00 72 1018.7
20260905203617 62 221 0.0 2.0 0.00 0.00 0.00 72 1018.8
20260905203406 62 218 0.0 2.0 0.00 0.00 0.00 73 1018.8
20260905203206 62 321 0.0 2.0 0.00 0.00 0.00 73 1018.8
20260905203006 62 355 0.0 2.0 0.00 0.00 0.00 72 1018.9
20260905202805 63 205 0.0 2.0 0.00 0.00 0.00 72 1018.7
20260905202605 63 304 0.0 2.0 0.00 0.00 0.00 71 1018.7
20260905202404 63 169 0.0 2.0 0.00 0.00 0.00 72 1018.6
20260905202204 63 184 0.0 1.0 0.00 0.00 0.00 71 1018.7
20260905202004 64 242 0.0 1.0 0.00 0.00 0.00 70 1018.9
20260905201752 64 280 0.0 2.0 0.00 0.00 0.00 70 1018.7
20260905201553 64 224 0.0 2.0 0.00 0.00 0.00 70 1018.6
20260905201352 64 218 0.0 2.0 0.00 0.00 0.00 70 1018.5
20260905201152 64 230 0.0 2.0 0.00 0.00 0.00 70 1018.8
20260905200953 64 201 0.0 2.0 0.00 0.00 0.00 70 1018.6
20260905200751 64 304 2.0 2.0 0.00 0.00 0.00 70 1018.5
20260905200552 64 231 0.0 2.0 0.00 0.00 0.00 69 1018.6
20260905200351 64 335 1.0 1.0 0.00 0.00 0.00 69 1018.7
20260905200150 64 341 0.0 1.0 0.00 0.00 0.00 68 1018.7
20260905195952 64 297 0.0 1.0 0.00 0.00 0.00 68 1018.5
20260905195749 64 306 0.0 2.0 0.00 0.00 0.00 69 1018.6
20260905195549 64 198 0.0 2.0 0.00 0.00 0.00 69 1018.5
20260905195349 64 18 1.0 2.0 0.00 0.00 0.00 69 1018.6
20260905195151 64 343 0.0 2.0 0.00 0.00 0.00 69 1018.7
20260905194951 64 338 1.0 2.0 0.00 0.00 0.00 69 1018.8
20260905194749 64 255 0.0 2.0 0.00 0.00 0.00 69 1018.6
20260905194548 64 255 0.0 2.0 0.00 0.00 0.00 69 1018.6
20260905194348 64 268 0.0 2.0 0.00 0.00 0.00 69 1018.6
20260905194148 64 219 0.0 2.0 0.00 0.00 0.00 68 1018.7
20260905193951 64 228 1.0 2.0 0.00 0.00 0.00 68 1018.6
20260905193747 65 307 0.0 2.0 0.00 0.00 0.00 68 1018.5
20260905193549 65 241 1.0 2.0 0.00 0.00 0.00 68 1018.5
20260905193348 65 221 0.0 2.0 0.00 0.00 0.00 68 1018.6
20260905193149 65 320 0.0 2.0 0.00 0.00 0.00 68 1018.6
20260905192950 65 174 0.0 2.0 0.00 0.00 0.00 68 1018.8
20260905192748 65 193 0.0 2.0 0.00 0.00 0.00 68 1018.7
20260905192548 65 193 0.0 2.0 0.00 0.00 0.00 68 1018.8
20260905192347 65 215 1.0 2.0 0.00 0.00 0.00 69 1018.6
20260905192148 65 179 0.0 2.0 0.00 0.00 0.00 69 1018.7
20260905191949 65 234 0.0 2.0 0.00 0.00 0.00 68 1018.7
20260905191747 65 233 2.0 2.0 0.00 0.00 0.00 69 1018.6
20260905191547 66 238 0.0 2.0 0.00 0.00 0.00 68 1018.8
20260905191348 66 190 2.0 2.0 0.00 0.00 0.00 67 1018.5
20260905191147 66 176 0.0 2.0 0.00 0.00 0.00 68 1018.6
20260905190948 66 180 0.0 2.0 0.00 0.00 0.00 68 1018.6
20260905190746 67 191 0.0 2.0 0.00 0.00 0.00 67 1018.8
20260905190547 67 176 1.0 2.0 0.00 0.00 0.00 66 1018.7
20260905190345 67 177 0.0 2.0 0.00 0.00 0.00 67 1018.6
20260905190145 67 209 0.0 2.0 0.00 0.00 0.00 66 1018.6
20260905185947 67 198 1.0 2.0 0.00 0.00 0.00 66 1018.5
20260905185744 68 217 0.0 2.0 0.00 0.00 0.00 65 1018.6
20260905185544 68 241 0.0 2.0 0.00 0.00 0.00 65 1018.5
20260905185343 68 229 0.0 2.0 0.00 0.00 0.00 65 1018.6
20260905185143 68 329 0.0 2.0 0.00 0.00 0.00 64 1018.4
20260905184945 68 209 1.0 2.0 0.00 0.00 0.00 64 1018.6
20260905184742 68 233 1.0 2.0 0.00 0.00 0.00 64 1018.4
20260905184542 68 238 1.0 2.0 0.00 0.00 0.00 64 1018.4
20260905184342 68 273 0.0 2.0 0.00 0.00 0.00 64 1018.6
20260905184143 69 271 0.0 2.0 0.00 0.00 0.00 63 1018.6
20260905183930 69 293 0.0 2.0 0.00 0.00 0.00 63 1018.4
20260905183730 69 322 0.0 2.0 0.00 0.00 0.00 62 1018.5
20260905183518 69 315 1.0 2.0 0.00 0.00 0.00 63 1018.7
20260905183318 69 199 1.0 2.0 0.00 0.00 0.00 63 1018.5
20260905183118 69 335 0.0 2.0 0.00 0.00 0.00 63 1018.6
20260905182918 69 253 2.0 2.0 0.00 0.00 0.00 62 1018.5
20260905182718 69 202 1.0 4.0 0.00 0.00 0.00 62 1018.6
20260905182519 69 190 0.0 4.0 0.00 0.00 0.00 62 1018.6
20260905182319 70 180 0.0 4.0 0.00 0.00 0.00 62 1018.5
20260905182118 70 180 2.0 4.0 0.00 0.00 0.00 61 1018.4
20260905181918 70 199 2.0 4.0 0.00 0.00 0.00 60 1018.5
20260905181717 71 177 2.0 2.0 0.00 0.00 0.00 59 1018.6
20260905181517 71 222 0.0 2.0 0.00 0.00 0.00 57 1018.4
20260905181317 71 202 0.0 2.0 0.00 0.00 0.00 57 1018.2
20260905181117 71 252 0.0 2.0 0.00 0.00 0.00 57 1018.6
20260905180904 71 330 0.0 2.0 0.00 0.00 0.00 58 1018.4
20260905180705 72 245 1.0 2.0 0.00 0.00 0.00 58 1018.4
20260905180504 72 253 0.0 2.0 0.00 0.00 0.00 58 1018.2
20260905180303 72 322 0.0 2.0 0.00 0.00 0.00 58 1018.3
20260905180103 72 235 1.0 2.0 0.00 0.00 0.00 57 1018.6
20260905175902 73 224 0.0 2.0 0.00 0.00 0.00 56 1018.3
20260905175703 73 287 0.0 2.0 0.00 0.00 0.00 55 1018.3
20260905175504 73 211 2.0 2.0 0.00 0.00 0.00 54 1018.2
20260905175305 74 216 0.0 2.0 0.00 0.00 0.00 54 1018.2
20260905175101 74 294 1.0 2.0 0.00 0.00 0.00 53 1018.1
20260905174900 74 201 2.0 2.0 0.00 0.00 0.00 53 1018.2
20260905174700 74 205 0.0 2.0 0.00 0.00 0.00 51 1018.3
20260905174501 75 195 0.0 2.0 0.00 0.00 0.00 52 1018.2
20260905174259 75 313 2.0 2.0 0.00 0.00 0.00 51 1018.0
20260905174059 75 268 2.0 2.0 0.00 0.00 0.00 50 1018.1
20260905173859 75 241 1.0 3.0 0.00 0.00 0.00 50 1018.1
20260905173700 76 255 1.0 3.0 0.00 0.00 0.00 50 1018.1
20260905173459 76 263 0.0 3.0 0.00 0.00 0.00 49 1018.0
20260905173259 77 245 2.0 3.0 0.00 0.00 0.00 47 1018.0
20260905173101 77 269 0.0 3.0 0.00 0.00 0.00 47 1018.2
20260905172859 77 254 0.0 3.0 0.00 0.00 0.00 47 1017.9
20260905172659 77 259 2.0 3.0 0.00 0.00 0.00 45 1018.0
20260905172459 78 265 1.0 3.0 0.00 0.00 0.00 45 1018.1
20260905172259 78 228 0.0 2.0 0.00 0.00 0.00 44 1018.0
20260905172059 78 219 0.0 2.0 0.00 0.00 0.00 43 1018.0
20260905171857 78 7 1.0 2.0 0.00 0.00 0.00 44 1017.9
20260905171658 79 195 0.0 2.0 0.00 0.00 0.00 44 1017.8
20260905171458 79 217 0.0 2.0 0.00 0.00 0.00 44 1017.9
20260905171259 80 215 0.0 2.0 0.00 0.00 0.00 42 1017.8
20260905171058 80 333 0.0 2.0 0.00 0.00 0.00 41 1017.9
20260905170859 80 309 0.0 3.0 0.00 0.00 0.00 43 1017.8
20260905170659 80 315 0.0 3.0 0.00 0.00 0.00 41 1017.6
20260905170458 81 292 1.0 3.0 0.00 0.00 0.00 39 1017.6
20260905170258 81 246 2.0 3.0 0.00 0.00 0.00 39 1017.7
20260905170058 81 252 1.0 4.0 0.00 0.00 0.00 39 1017.8
20260905165858 81 265 2.0 4.0 0.00 0.00 0.00 39 1017.6
20260905165700 81 254 1.0 4.0 0.00 0.00 0.00 40 1017.6
20260905165458 81 235 2.0 4.0 0.00 0.00 0.00 40 1017.6
20260905165257 81 235 1.0 4.0 0.00 0.00 0.00 40 1017.7
20260905165057 81 283 2.0 3.0 0.00 0.00 0.00 43 1017.6
20260905164857 81 269 1.0 3.0 0.00 0.00 0.00 42 1017.7
20260905164658 81 297 0.0 3.0 0.00 0.00 0.00 43 1017.6
20260905164457 82 295 1.0 3.0 0.00 0.00 0.00 43 1017.6
20260905164256 82 236 1.0 3.0 0.00 0.00 0.00 41 1017.7
20260905164056 82 225 0.0 3.0 0.00 0.00 0.00 41 1017.6
20260905163855 82 268 1.0 3.0 0.00 0.00 0.00 40 1017.3
20260905163655 83 259 1.0 3.0 0.00 0.00 0.00 40 1017.5
20260905163455 83 252 3.0 3.0 0.00 0.00 0.00 39 1017.5
20260905163255 83 278 1.0 2.0 0.00 0.00 0.00 41 1017.4
20260905163055 84 265 1.0 3.0 0.00 0.00 0.00 41 1017.3
20260905162855 84 230 0.0 3.0 0.00 0.00 0.00 40 1017.4
20260905162655 85 224 0.0 3.0 0.00 0.00 0.00 41 1017.5
20260905162456 85 259 1.0 3.0 0.00 0.00 0.00 39 1017.4
20260905162255 86 266 0.0 3.0 0.00 0.00 0.00 39 1017.4
20260905162054 86 275 2.0 2.0 0.00 0.00 0.00 38 1017.4
20260905161853 87 274 1.0 3.0 0.00 0.00 0.00 37 1017.2
20260905161653 88 255 0.0 3.0 0.00 0.00 0.00 37 1017.5
20260905161453 88 259 2.0 3.0 0.00 0.00 0.00 36 1017.3
20260905161252 89 257 2.0 3.0 0.00 0.00 0.00 36 1017.4
20260905161052 89 252 1.0 4.0 0.00 0.00 0.00 36 1017.3
20260905160855 89 256 0.0 4.0 0.00 0.00 0.00 37 1017.3
20260905160651 89 258 2.0 4.0 0.00 0.00 0.00 36 1017.5
20260905160451 89 265 2.0 4.0 0.00 0.00 0.00 36 1017.6
20260905160250 89 255 2.0 4.0 0.00 0.00 0.00 36 1017.2
20260905160051 90 251 4.0 4.0 0.00 0.00 0.00 35 1017.2
20260905155849 91 277 2.0 4.0 0.00 0.00 0.00 36 1017.4
20260905155650 91 245 2.0 4.0 0.00 0.00 0.00 34 1017.2
20260905155450 91 253 2.0 4.0 0.00 0.00 0.00 34 1017.3
20260905155250 91 269 2.0 4.0 0.00 0.00 0.00 34 1017.5
20260905155050 91 248 2.0 4.0 0.00 0.00 0.00 34 1017.3
20260905154843 91 259 3.0 4.0 0.00 0.00 0.00 32 1017.2
20260905154637 91 256 1.0 4.0 0.00 0.00 0.00 32 1017.4
20260905154438 91 259 3.0 4.0 0.00 0.00 0.00 32 1017.3
20260905154238 91 243 3.0 4.0 0.00 0.00 0.00 31 1017.2
20260905154037 91 233 2.0 5.0 0.00 0.00 0.00 32 1017.2
20260905153838 91 239 2.0 5.0 0.00 0.00 0.00 32 1017.2
20260905153637 91 221 3.0 5.0 0.00 0.00 0.00 32 1017.2
20260905153438 91 228 2.0 5.0 0.00 0.00 0.00 32 1017.3
20260905153238 91 235 3.0 5.0 0.00 0.00 0.00 32 1017.3
20260905153037 92 203 3.0 5.0 0.00 0.00 0.00 31 1017.4
20260905152838 92 231 5.0 5.0 0.00 0.00 0.00 31 1017.2
20260905152637 92 233 2.0 5.0 0.00 0.00 0.00 30 1017.3
20260905152437 92 241 2.0 5.0 0.00 0.00 0.00 31 1017.4
20260905152236 93 259 3.0 5.0 0.00 0.00 0.00 31 1017.1
20260905152036 94 242 2.0 5.0 0.00 0.00 0.00 31 1017.4
20260905151835 95 232 4.0 4.0 0.00 0.00 0.00 29 1017.4
20260905151635 95 272 2.0 4.0 0.00 0.00 0.00 30 1017.2
20260905151435 94 226 2.0 4.0 0.00 0.00 0.00 29 1017.4
20260905151235 94 229 2.0 3.0 0.00 0.00 0.00 28 1017.4
20260905151035 95 210 2.0 3.0 0.00 0.00 0.00 28 1017.3
20260905150834 95 241 2.0 4.0 0.00 0.00 0.00 27 1017.2
20260905150635 96 249 2.0 4.0 0.00 0.00 0.00 27 1017.3
20260905150434 96 233 2.0 5.0 0.00 0.00 0.00 29 1017.2
20260905150233 95 269 2.0 5.0 0.00 0.00 0.00 28 1017.3
20260905150033 94 226 1.0 5.0 0.00 0.00 0.00 28 1017.4
20260905145832 94 228 2.0 5.0 0.00 0.00 0.00 27 1017.5
20260905145632 94 223 2.0 5.0 0.00 0.00 0.00 26 1017.4
20260905145432 95 238 4.0 5.0 0.00 0.00 0.00 27 1017.4
20260905145231 96 254 2.0 5.0 0.00 0.00 0.00 26 1017.3
20260905145032 96 266 2.0 4.0 0.00 0.00 0.00 28 1017.5
20260905144949 97 261 2.0 3.0 0.00 0.00 0.00 28 1017.2
20260905144941 97 227 2.0 3.0 0.00 0.00 0.00 26 1017.2
20260905144431 96 246 2.0 4.0 0.00 0.00 0.00 27 1017.3
20260905144231 95 252 2.0 4.0 0.00 0.00 0.00 28 1017.5
20260905144030 94 240 2.0 4.0 0.00 0.00 0.00 26 1017.2
20260905143830 94 346 2.0 4.0 0.00 0.00 0.00 27 1017.4
20260905143629 94 262 2.0 4.0 0.00 0.00 0.00 27 1017.4
20260905143429 95 325 2.0 4.0 0.00 0.00 0.00 27 1017.2
20260905143229 96 251 2.0 4.0 0.00 0.00 0.00 26 1017.3
20260905143029 96 263 2.0 4.0 0.00 0.00 0.00 26 1017.4
20260905142828 96 320 2.0 4.0 0.00 0.00 0.00 26 1017.3
20260905142628 97 280 1.0 4.0 0.00 0.00 0.00 26 1017.3
20260905142428 97 265 0.0 3.0 0.00 0.00 0.00 26 1017.5
20260905142228 97 229 3.0 3.0 0.00 0.00 0.00 25 1017.4
20260905142028 97 254 2.0 3.0 0.00 0.00 0.00 26 1017.4
20260905141828 97 228 0.0 3.0 0.00 0.00 0.00 26 1017.3
20260905141626 98 257 1.0 3.0 0.00 0.00 0.00 27 1017.2
20260905141427 96 239 2.0 4.0 0.00 0.00 0.00 25 1017.5
20260905141225 97 286 0.0 4.0 0.00 0.00 0.00 25 1017.4
20260905141025 97 250 2.0 4.0 0.00 0.00 0.00 25 1017.2
20260905140824 97 290 3.0 4.0 0.00 0.00 0.00 26 1017.1
20260905140625 97 267 0.0 4.0 0.00 0.00 0.00 26 1017.3
20260905140425 97 250 3.0 4.0 0.00 0.00 0.00 25 1017.4
20260905140225 97 252 2.0 4.0 0.00 0.00 0.00 27 1017.3
20260905140025 97 250 2.0 4.0 0.00 0.00 0.00 27 1017.4
20260905135825 97 251 1.0 4.0 0.00 0.00 0.00 26 1017.5
20260905135624 97 237 1.0 3.0 0.00 0.00 0.00 25 1017.3
20260905135426 97 261 2.0 3.0 0.00 0.00 0.00 26 1017.6
20260905135223 96 273 2.0 3.0 0.00 0.00 0.00 26 1017.5
20260905135023 96 278 2.0 3.0 0.00 0.00 0.00 27 1017.5
20260905134823 96 228 3.0 5.0 0.00 0.00 0.00 25 1017.5
20260905134623 95 226 3.0 5.0 0.00 0.00 0.00 26 1017.4
20260905134423 95 253 2.0 6.0 0.00 0.00 0.00 26 1017.5
20260905134223 94 207 0.0 6.0 0.00 0.00 0.00 26 1017.6
20260905134023 94 209 1.0 6.0 0.00 0.00 0.00 28 1017.4
20260905133822 94 232 3.0 6.0 0.00 0.00 0.00 27 1017.6
20260905133623 95 230 4.0 6.0 0.00 0.00 0.00 26 1017.6
20260905133422 96 243 3.0 4.0 0.00 0.00 0.00 26 1017.6
20260905133222 95 231 0.0 4.0 0.00 0.00 0.00 26 1017.6
20260905133022 96 271 1.0 4.0 0.00 0.00 0.00 26 1017.6
20260905132820 96 199 2.0 4.0 0.00 0.00 0.00 26 1017.5
20260905132620 95 247 2.0 6.0 0.00 0.00 0.00 27 1017.8
20260905132420 95 231 2.0 6.0 0.00 0.00 0.00 26 1017.3
20260905132219 95 286 2.0 6.0 0.00 0.00 0.00 26 1017.6
20260905132019 94 252 3.0 6.0 0.00 0.00 0.00 26 1017.7
20260905131818 94 222 1.0 7.0 0.00 0.00 0.00 26 1017.7
20260905131618 94 242 3.0 7.0 0.00 0.00 0.00 27 1017.8
20260905131418 94 208 3.0 7.0 0.00 0.00 0.00 26 1017.7
20260905131217 94 252 4.0 7.0 0.00 0.00 0.00 26 1017.8
20260905131017 94 276 3.0 7.0 0.00 0.00 0.00 26 1017.8
20260905130816 94 204 7.0 7.0 0.00 0.00 0.00 26 1017.7
20260905130616 93 249 2.0 5.0 0.00 0.00 0.00 27 1017.8
20260905130418 93 211 4.0 5.0 0.00 0.00 0.00 26 1017.9
20260905130226 94 187 2.0 5.0 0.00 0.00 0.00 27 1017.9
20260905130014 94 10 1.0 4.0 0.00 0.00 0.00 26 1017.7
20260905125813 95 290 0.0 4.0 0.00 0.00 0.00 27 1017.8
20260905125614 94 269 2.0 4.0 0.00 0.00 0.00 27 1018.0
20260905125413 94 243 4.0 4.0 0.00 0.00 0.00 27 1017.9
20260905125213 93 255 2.0 4.0 0.00 0.00 0.00 26 1018.0
20260905125013 92 184 2.0 4.0 0.00 0.00 0.00 27 1017.7
20260905124811 91 49 0.0 3.0 0.00 0.00 0.00 28 1017.9
20260905124612 92 38 0.0 3.0 0.00 0.00 0.00 28 1017.9
20260905124412 92 353 0.0 3.0 0.00 0.00 0.00 28 1018.1
20260905124212 91 347 1.0 3.0 0.00 0.00 0.00 27 1018.0
20260905124013 92 341 2.0 4.0 0.00 0.00 0.00 28 1018.1
20260905123812 92 356 2.0 5.0 0.00 0.00 0.00 27 1018.0
20260905123611 93 193 0.0 6.0 0.00 0.00 0.00 27 1018.0
20260905123411 92 212 0.0 6.0 0.00 0.00 0.00 28 1018.0
20260905123210 92 161 2.0 6.0 0.00 0.00 0.00 27 1018.1
20260905123011 92 189 3.0 6.0 0.00 0.00 0.00 27 1018.1
20260905122810 93 197 3.0 6.0 0.00 0.00 0.00 27 1018.2
20260905122610 93 315 2.0 5.0 0.00 0.00 0.00 26 1018.3
20260905122410 93 291 1.0 5.0 0.00 0.00 0.00 28 1018.1
20260905122209 93 117 2.0 5.0 0.00 0.00 0.00 27 1018.1
20260905122010 94 199 3.0 4.0 0.00 0.00 0.00 27 1018.2
20260905121808 93 248 0.0 4.0 0.00 0.00 0.00 28 1018.3
20260905121608 93 316 2.0 4.0 0.00 0.00 0.00 27 1018.4
20260905121409 93 9 1.0 4.0 0.00 0.00 0.00 28 1018.3
20260905121208 93 241 0.0 4.0 0.00 0.00 0.00 28 1018.4
20260905121008 92 242 0.0 4.0 0.00 0.00 0.00 28 1018.2
20260905120807 91 290 2.0 4.0 0.00 0.00 0.00 28 1018.5
20260905120607 91 317 1.0 4.0 0.00 0.00 0.00 29 1018.4
20260905120407 92 0 2.0 4.0 0.00 0.00 0.00 29 1018.5
20260905120206 93 326 1.0 6.0 0.00 0.00 0.00 28 1018.6
20260905120009 92 214 3.0 6.0 0.00 0.00 0.00 28 1018.6
20260905115806 92 269 0.0 6.0 0.00 0.00 0.00 28 1018.6
20260905115607 92 164 2.0 6.0 0.00 0.00 0.00 28 1018.4
20260905115406 91 253 3.0 6.0 0.00 0.00 0.00 28 1018.7
20260905115207 90 206 0.0 6.0 0.00 0.00 0.00 30 1018.6
20260905115007 91 213 5.0 6.0 0.00 0.00 0.00 28 1018.6
20260905114806 91 198 4.0 6.0 0.00 0.00 0.00 28 1018.8
20260905114605 91 215 2.0 6.0 0.00 0.00 0.00 29 1018.5
20260905114405 90 223 4.0 6.0 0.00 0.00 0.00 30 1018.6
20260905114205 90 215 0.0 6.0 0.00 0.00 0.00 30 1018.8
20260905114004 90 216 2.0 6.0 0.00 0.00 0.00 28 1018.6
20260905113804 90 253 2.0 6.0 0.00 0.00 0.00 28 1018.7
20260905113604 89 216 3.0 6.0 0.00 0.00 0.00 28 1018.8
20260905113404 91 196 5.0 6.0 0.00 0.00 0.00 28 1018.7
20260905113204 91 247 4.0 6.0 0.00 0.00 0.00 28 1018.8
20260905113003 91 191 4.0 6.0 0.00 0.00 0.00 29 1018.8
20260905112802 91 220 2.0 6.0 0.00 0.00 0.00 30 1018.8
20260905112603 91 266 1.0 6.0 0.00 0.00 0.00 29 1018.8
20260905112402 92 251 4.0 6.0 0.00 0.00 0.00 29 1018.9
20260905112202 92 256 2.0 5.0 0.00 0.00 0.00 29 1018.7
20260905112003 92 209 0.0 4.0 0.00 0.00 0.00 29 1018.8
20260905111801 91 257 2.0 6.0 0.00 0.00 0.00 29 1018.7
20260905111601 92 264 3.0 6.0 0.00 0.00 0.00 29 1018.9
20260905111401 91 228 4.0 6.0 0.00 0.00 0.00 29 1018.8
20260905111200 91 268 2.0 6.0 0.00 0.00 0.00 29 1018.9
20260905111000 91 249 3.0 6.0 0.00 0.00 0.00 29 1018.9
20260905110759 91 261 5.0 5.0 0.00 0.00 0.00 29 1018.9
20260905110600 91 261 3.0 5.0 0.00 0.00 0.00 29 1019.1
20260905110359 91 289 1.0 5.0 0.00 0.00 0.00 29 1019.0
20260905110201 90 198 2.0 5.0 0.00 0.00 0.00 29 1019.0
20260905105959 90 218 2.0 5.0 0.00 0.00 0.00 29 1019.1
20260905105759 90 152 2.0 6.0 0.00 0.00 0.00 28 1019.2
20260905105559 91 191 3.0 6.0 0.00 0.00 0.00 29 1019.1
20260905105359 90 255 1.0 6.0 0.00 0.00 0.00 30 1018.9
20260905105159 89 37 0.0 6.0 0.00 0.00 0.00 31 1019.0
20260905104959 89 194 1.0 6.0 0.00 0.00 0.00 30 1019.1
20260905104759 91 197 6.0 6.0 0.00 0.00 0.00 30 1018.9
20260905104558 91 260 2.0 3.0 0.00 0.00 0.00 30 1019.2
20260905104358 90 251 2.0 4.0 0.00 0.00 0.00 30 1019.2
20260905104159 90 318 2.0 4.0 0.00 0.00 0.00 29 1019.2
20260905104000 90 249 2.0 4.0 0.00 0.00 0.00 31 1019.1
20260905103757 91 316 0.0 4.0 0.00 0.00 0.00 29 1019.3
20260905103557 91 319 1.0 4.0 0.00 0.00 0.00 30 1019.1
20260905103358 91 225 2.0 4.0 0.00 0.00 0.00 30 1019.2
20260905103156 91 220 2.0 3.0 0.00 0.00 0.00 30 1019.3
20260905102956 90 209 3.0 3.0 0.00 0.00 0.00 31 1019.5
20260905102755 90 247 1.0 3.0 0.00 0.00 0.00 32 1019.5
20260905102556 90 297 0.0 3.0 0.00 0.00 0.00 31 1019.5
20260905102355 89 320 2.0 3.0 0.00 0.00 0.00 31 1019.2
20260905102155 89 240 2.0 3.0 0.00 0.00 0.00 31 1019.3
20260905101956 89 108 0.0 4.0 0.00 0.00 0.00 31 1019.0
20260905101754 90 323 0.0 4.0 0.00 0.00 0.00 31 1019.3
20260905101554 90 278 2.0 4.0 0.00 0.00 0.00 31 1019.5
20260905101355 89 272 2.0 4.0 0.00 0.00 0.00 31 1019.3
20260905101153 89 228 0.0 5.0 0.00 0.00 0.00 31 1019.3
20260905100954 89 267 1.0 5.0 0.00 0.00 0.00 30 1019.6
20260905100753 89 316 0.0 5.0 0.00 0.00 0.00 30 1019.5
20260905100554 89 253 3.0 5.0 0.00 0.00 0.00 30 1019.5
20260905100354 88 247 1.0 5.0 0.00 0.00 0.00 31 1019.7
20260905100152 89 177 1.0 3.0 0.00 0.00 0.00 31 1019.7
20260905095952 89 197 1.0 3.0 0.00 0.00 0.00 30 1019.5
20260905095751 88 214 2.0 3.0 0.00 0.00 0.00 29 1019.6
20260905095551 88 249 3.0 3.0 0.00 0.00 0.00 30 1019.8
20260905095351 88 250 0.0 3.0 0.00 0.00 0.00 30 1019.9
20260905095151 88 13 2.0 3.0 0.00 0.00 0.00 30 1019.7
20260905094952 88 208 0.0 4.0 0.00 0.00 0.00 31 1019.6
20260905094751 88 229 2.0 4.0 0.00 0.00 0.00 30 1019.6
20260905094540 89 317 1.0 4.0 0.00 0.00 0.00 31 1019.6
20260905094340 89 266 2.0 4.0 0.00 0.00 0.00 30 1019.6
20260905094137 88 261 0.0 5.0 0.00 0.00 0.00 31 1019.8
20260905093938 88 256 2.0 6.0 0.00 0.00 0.00 31 1019.8
20260905093737 88 327 2.0 6.0 0.00 0.00 0.00 32 1019.9
20260905093537 88 251 2.0 6.0 0.00 0.00 0.00 31 1019.8
20260905093339 88 227 3.0 6.0 0.00 0.00 0.00 31 1019.7
20260905093136 87 218 2.0 6.0 0.00 0.00 0.00 32 1019.9
20260905092936 88 298 2.0 3.0 0.00 0.00 0.00 31 1019.9
20260905092736 88 294 0.0 5.0 0.00 0.00 0.00 32 1019.9
20260905092536 88 232 2.0 5.0 0.00 0.00 0.00 32 1019.9
20260905092339 88 218 0.0 5.0 0.00 0.00 0.00 31 1020.0
20260905092130 87 13 0.0 5.0 0.00 0.00 0.00 31 1019.8
20260905091924 87 277 5.0 5.0 0.00 0.00 0.00 31 1019.9
20260905091724 88 251 2.0 4.0 0.00 0.00 0.00 32 1020.0
20260905091523 88 317 2.0 4.0 0.00 0.00 0.00 31 1019.9
20260905091323 87 258 2.0 4.0 0.00 0.00 0.00 32 1019.7
20260905091123 87 359 0.0 4.0 0.00 0.00 0.00 32 1019.9
20260905090923 87 307 0.0 4.0 0.00 0.00 0.00 32 1020.0
20260905090723 87 251 3.0 4.0 0.00 0.00 0.00 33 1020.0
20260905090523 87 291 2.0 4.0 0.00 0.00 0.00 33 1020.0
20260905090322 86 251 2.0 4.0 0.00 0.00 0.00 34 1020.1
20260905090122 86 246 2.0 4.0 0.00 0.00 0.00 33 1020.2
20260905085922 86 260 2.0 3.0 0.00 0.00 0.00 34 1020.0
20260905085721 86 339 0.0 3.0 0.00 0.00 0.00 35 1020.1
20260905085509 85 315 0.0 5.0 0.00 0.00 0.00 36 1020.1
20260905085308 85 316 2.0 5.0 0.00 0.00 0.00 35 1020.1
20260905085108 85 347 0.0 6.0 0.00 0.00 0.00 35 1020.2
20260905084909 85 246 0.0 6.0 0.00 0.00 0.00 35 1020.2
20260905084707 84 242 4.0 6.0 0.00 0.00 0.00 35 1020.2
20260905084508 85 258 3.0 6.0 0.00 0.00 0.00 36 1020.3
20260905084307 85 216 2.0 6.0 0.00 0.00 0.00 36 1020.2
20260905084107 85 239 2.0 6.0 0.00 0.00 0.00 34 1020.1
20260905083906 85 249 2.0 6.0 0.00 0.00 0.00 36 1020.2
20260905083707 85 238 2.0 6.0 0.00 0.00 0.00 35 1020.2
20260905083506 84 255 2.0 6.0 0.00 0.00 0.00 36 1020.2
20260905083307 85 197 4.0 6.0 0.00 0.00 0.00 36 1020.3
20260905083106 85 226 3.0 6.0 0.00 0.00 0.00 36 1020.2
20260905082907 84 169 2.0 6.0 0.00 0.00 0.00 35 1020.4
20260905082705 84 230 2.0 6.0 0.00 0.00 0.00 37 1020.4
20260905082507 84 237 5.0 6.0 0.00 0.00 0.00 36 1020.4
20260905082307 85 215 2.0 6.0 0.00 0.00 0.00 36 1020.5
20260905082104 85 252 1.0 6.0 0.00 0.00 0.00 36 1020.2
20260905081904 85 274 1.0 6.0 0.00 0.00 0.00 38 1020.5
20260905081703 84 234 0.0 6.0 0.00 0.00 0.00 38 1020.5
20260905081503 83 248 2.0 6.0 0.00 0.00 0.00 39 1020.3
20260905081302 84 246 4.0 6.0 0.00 0.00 0.00 38 1020.3
20260905081102 84 273 4.0 5.0 0.00 0.00 0.00 39 1020.6
20260905080902 83 229 0.0 5.0 0.00 0.00 0.00 38 1020.3
20260905080702 83 266 3.0 5.0 0.00 0.00 0.00 37 1020.6
20260905080502 84 257 2.0 5.0 0.00 0.00 0.00 38 1020.4
20260905080301 83 266 2.0 6.0 0.00 0.00 0.00 39 1020.6
20260905080101 83 181 2.0 6.0 0.00 0.00 0.00 39 1020.6
20260905075901 82 235 0.0 6.0 0.00 0.00 0.00 39 1020.4
20260905075701 82 248 3.0 6.0 0.00 0.00 0.00 39 1020.6
20260905075500 83 188 5.0 6.0 0.00 0.00 0.00 38 1020.6
20260905075300 83 213 2.0 5.0 0.00 0.00 0.00 39 1020.6
20260905075059 83 195 4.0 4.0 0.00 0.00 0.00 40 1020.4
20260905074859 83 183 2.0 4.0 0.00 0.00 0.00 38 1020.5
20260905074659 83 256 2.0 3.0 0.00 0.00 0.00 40 1020.5
20260905074500 83 261 0.0 5.0 0.00 0.00 0.00 42 1020.4
20260905074258 82 289 2.0 5.0 0.00 0.00 0.00 41 1020.6
20260905074058 82 293 2.0 5.0 0.00 0.00 0.00 41 1020.4
20260905073858 81 246 0.0 5.0 0.00 0.00 0.00 43 1020.6
20260905073658 81 179 0.0 5.0 0.00 0.00 0.00 41 1020.6
20260905073459 81 199 2.0 4.0 0.00 0.00 0.00 42 1020.6
20260905073257 82 201 3.0 4.0 0.00 0.00 0.00 41 1020.6
20260905073056 82 155 1.0 4.0 0.00 0.00 0.00 43 1020.5
20260905072856 82 221 1.0 3.0 0.00 0.00 0.00 41 1020.7
20260905072656 82 269 2.0 3.0 0.00 0.00 0.00 42 1020.7
20260905072455 82 196 2.0 3.0 0.00 0.00 0.00 41 1020.6
20260905072254 81 237 0.0 3.0 0.00 0.00 0.00 45 1020.5
20260905072054 81 239 3.0 3.0 0.00 0.00 0.00 43 1020.5
20260905071854 80 289 0.0 3.0 0.00 0.00 0.00 44 1020.5
20260905071653 80 194 2.0 2.0 0.00 0.00 0.00 44 1020.6
20260905071453 79 271 1.0 3.0 0.00 0.00 0.00 47 1020.7
20260905071253 79 248 2.0 3.0 0.00 0.00 0.00 47 1020.5
20260905071054 80 286 0.0 3.0 0.00 0.00 0.00 48 1020.5
20260905070853 79 228 0.0 3.0 0.00 0.00 0.00 47 1020.4
20260905070653 79 288 1.0 3.0 0.00 0.00 0.00 48 1020.5
20260905070453 79 234 1.0 3.0 0.00 0.00 0.00 48 1020.5
20260905070252 78 255 0.0 3.0 0.00 0.00 0.00 48 1020.4
20260905070052 78 235 1.0 3.0 0.00 0.00 0.00 50 1020.6
20260905065853 79 278 1.0 3.0 0.00 0.00 0.00 48 1020.5
20260905065651 78 218 0.0 3.0 0.00 0.00 0.00 50 1020.7
20260905065451 77 229 0.0 3.0 0.00 0.00 0.00 51 1020.6
20260905065251 77 241 1.0 3.0 0.00 0.00 0.00 51 1020.6
20260905065050 76 333 0.0 3.0 0.00 0.00 0.00 52 1020.6
20260905064852 75 258 1.0 4.0 0.00 0.00 0.00 53 1020.7
20260905064650 75 277 1.0 4.0 0.00 0.00 0.00 54 1020.4
20260905064451 74 251 1.0 4.0 0.00 0.00 0.00 54 1020.4
20260905064250 74 296 0.0 4.0 0.00 0.00 0.00 55 1020.4
20260905064050 74 235 3.0 4.0 0.00 0.00 0.00 54 1020.5
20260905063850 73 210 1.0 4.0 0.00 0.00 0.00 56 1020.4
20260905063650 73 182 1.0 4.0 0.00 0.00 0.00 56 1020.5
20260905063449 72 227 2.0 4.0 0.00 0.00 0.00 57 1020.4
20260905063250 73 202 1.0 4.0 0.00 0.00 0.00 57 1020.4
20260905063049 72 203 3.0 4.0 0.00 0.00 0.00 58 1020.6
20260905062850 73 239 0.0 3.0 0.00 0.00 0.00 58 1020.5
20260905062648 73 197 1.0 2.0 0.00 0.00 0.00 57 1020.5
20260905062448 73 239 2.0 3.0 0.00 0.00 0.00 57 1020.6
20260905062247 72 255 1.0 3.0 0.00 0.00 0.00 59 1020.3
20260905062048 71 201 0.0 3.0 0.00 0.00 0.00 61 1020.6
20260905061847 71 228 2.0 3.0 0.00 0.00 0.00 62 1020.5
20260905061647 71 197 2.0 3.0 0.00 0.00 0.00 60 1020.4
20260905061447 70 217 0.0 3.0 0.00 0.00 0.00 60 1020.6
20260905061248 70 203 0.0 3.0 0.00 0.00 0.00 61 1020.5
20260905061047 70 170 1.0 3.0 0.00 0.00 0.00 63 1020.5
20260905060847 70 191 1.0 3.0 0.00 0.00 0.00 62 1020.7
20260905060647 70 210 0.0 4.0 0.00 0.00 0.00 63 1020.7
20260905060448 69 180 1.0 4.0 0.00 0.00 0.00 64 1020.5
20260905060247 68 202 1.0 4.0 0.00 0.00 0.00 65 1020.6
20260905060047 67 219 1.0 4.0 0.00 0.00 0.00 66 1020.4
20260905055848 67 185 2.0 4.0 0.00 0.00 0.00 67 1020.7
20260905055647 67 196 2.0 3.0 0.00 0.00 0.00 66 1020.7
20260905055448 67 253 1.0 3.0 0.00 0.00 0.00 68 1020.7
20260905055248 66 183 1.0 3.0 0.00 0.00 0.00 69 1020.7
20260905055047 66 185 2.0 4.0 0.00 0.00 0.00 69 1020.5
20260905054847 66 178 2.0 4.0 0.00 0.00 0.00 69 1020.6
20260905054641 65 176 1.0 4.0 0.00 0.00 0.00 70 1020.6
20260905054436 65 195 2.0 4.0 0.00 0.00 0.00 69 1020.5
20260905054235 65 180 1.0 4.0 0.00 0.00 0.00 69 1020.5
20260905054036 65 207 0.0 3.0 0.00 0.00 0.00 69 1020.4
20260905053835 65 178 0.0 2.0 0.00 0.00 0.00 69 1020.5
20260905053635 65 162 0.0 2.0 0.00 0.00 0.00 69 1020.6
20260905053436 64 178 0.0 2.0 0.00 0.00 0.00 70 1020.3
20260905053234 64 199 2.0 2.0 0.00 0.00 0.00 70 1020.6
20260905053035 64 172 2.0 2.0 0.00 0.00 0.00 69 1020.5
20260905052834 64 291 0.0 2.0 0.00 0.00 0.00 70 1020.5
20260905052633 64 133 0.0 2.0 0.00 0.00 0.00 69 1020.6
20260905052433 62 126 0.0 2.0 0.00 0.00 0.00 71 1020.5
20260905052232 61 186 0.0 2.0 0.00 0.00 0.00 74 1020.6
20260905052032 61 304 0.0 2.0 0.00 0.00 0.00 74 1020.7
20260905051833 61 53 0.0 2.0 0.00 0.00 0.00 74 1020.7
20260905051631 60 150 0.0 2.0 0.00 0.00 0.00 76 1020.7
20260905051431 59 172 0.0 3.0 0.00 0.00 0.00 77 1020.5
20260905051232 59 310 0.0 3.0 0.00 0.00 0.00 77 1020.7
20260905051030 59 248 0.0 3.0 0.00 0.00 0.00 77 1020.5
20260905050831 58 236 0.0 3.0 0.00 0.00 0.00 77 1020.3
20260905050629 58 223 2.0 3.0 0.00 0.00 0.00 77 1020.5
20260905050429 58 174 2.0 3.0 0.00 0.00 0.00 77 1020.5
20260905050229 58 167 0.0 2.0 0.00 0.00 0.00 77 1020.5
20260905050029 58 164 0.0 2.0 0.00 0.00 0.00 78 1020.5
20260905045829 58 297 0.0 2.0 0.00 0.00 0.00 78 1020.5
20260905045629 58 242 0.0 2.0 0.00 0.00 0.00 78 1020.4
20260905045430 58 232 2.0 2.0 0.00 0.00 0.00 77 1020.5
20260905045229 57 205 0.0 2.0 0.00 0.00 0.00 77 1020.7
20260905045029 57 234 1.0 3.0 0.00 0.00 0.00 77 1020.7
20260905044829 57 297 0.0 4.0 0.00 0.00 0.00 77 1020.5
20260905044628 57 230 1.0 4.0 0.00 0.00 0.00 77 1020.3
20260905044428 57 166 1.0 4.0 0.00 0.00 0.00 77 1020.5